UAE88 LSZH-OMDB

Flight info

Callsign UAE88
Flight time N/A
Altitude 39000
Route DEGES Z2 XEBIX L607 ELMEM N606 GIRIS DCT TISAX DCT NAXAV DCT GIKEB DCT ROSKA DCT ROTAR DCT AIOSA DCT LATAN DCT SALUN N705 MMA P751 DASUM Y234 FYM M872 KULKI/N0487F410 M872 BDB Y214 RAPMA DCT KUVSO DCT KATIT DCT PEKEM M628 RIGIL G783 ELUDA/N0464F350 G783 ASPED Q308 KIPOK Q568 IMPED
Aircraft A388/J-SADE2E3FGHIJ3J4J5M1RWXY/LB1D1

Departure

Time N/A
Airport Zürich Airport (LSZH)

Arrival

Time 2026-05-06 17:43
Airport Dubai International Airport (OMDB)
Time Latitude Longitude Altitude Speed Heading
2026-05-06 15:55 41.57880 17.48991 38992 ft 487 kts 158°
2026-05-06 15:55 41.45783 17.57281 38997 ft 487 kts 158°
2026-05-06 15:56 41.21761 17.73640 38995 ft 488 kts 158°
2026-05-06 15:56 40.97584 17.89968 39018 ft 488 kts 158°
2026-05-06 15:57 40.73332 18.06214 39017 ft 488 kts 158°
2026-05-06 15:57 40.49050 18.22344 39046 ft 488 kts 158°
2026-05-06 15:58 40.24749 18.38357 39044 ft 489 kts 158°
2026-05-06 15:58 40.00316 18.54326 39057 ft 492 kts 158°
2026-05-06 15:59 39.75906 18.70153 39065 ft 493 kts 158°
2026-05-06 15:59 39.51255 18.86008 39065 ft 494 kts 158°
2026-05-06 16:00 39.26970 19.02686 39074 ft 501 kts 144°
2026-05-06 16:00 39.05893 19.26402 39088 ft 503 kts 142°
2026-05-06 16:01 38.84815 19.49958 39097 ft 501 kts 142°
2026-05-06 16:01 38.63762 19.73283 39088 ft 499 kts 142°
2026-05-06 16:02 38.42663 19.96470 39091 ft 500 kts 142°
2026-05-06 16:02 38.21642 20.19390 39099 ft 500 kts 142°
2026-05-06 16:03 38.00490 20.42271 39097 ft 498 kts 142°
2026-05-06 16:03 37.79281 20.65032 39087 ft 501 kts 142°
2026-05-06 16:04 37.57912 20.87788 39079 ft 503 kts 142°
2026-05-06 16:04 37.36459 21.10456 39094 ft 502 kts 142°
2026-05-06 16:05 37.15074 21.32878 39098 ft 503 kts 142°
2026-05-06 16:05 36.93617 21.55206 39085 ft 505 kts 142°
2026-05-06 16:06 36.71951 21.77579 39086 ft 506 kts 142°
2026-05-06 16:06 36.50168 21.99903 39080 ft 507 kts 142°
2026-05-06 16:07 36.28331 22.22116 39088 ft 508 kts 142°
2026-05-06 16:07 36.06417 22.44240 39093 ft 508 kts 143°
2026-05-06 16:08 35.84490 22.66214 39096 ft 508 kts 143°
2026-05-06 16:08 35.62631 22.87960 39100 ft 508 kts 143°
2026-05-06 16:09 35.40596 23.09723 39105 ft 508 kts 143°
2026-05-06 16:09 35.18479 23.31408 39110 ft 509 kts 143°
2026-05-06 16:10 34.96318 23.52982 39109 ft 509 kts 143°
2026-05-06 16:10 34.74134 23.74424 39114 ft 509 kts 143°
2026-05-06 16:11 34.51876 23.95786 39112 ft 509 kts 143°
2026-05-06 16:11 34.29748 24.16875 39113 ft 510 kts 144°
2026-05-06 16:12 34.07416 24.38027 39114 ft 510 kts 144°
2026-05-06 16:12 33.85788 24.60284 39116 ft 512 kts 140°
2026-05-06 16:13 33.64506 24.83067 39120 ft 512 kts 140°
2026-05-06 16:13 33.43192 25.05716 39116 ft 512 kts 141°
2026-05-06 16:14 33.21834 25.28256 39123 ft 512 kts 141°
2026-05-06 16:14 33.00447 25.50675 39115 ft 511 kts 141°
2026-05-06 16:15 32.79017 25.72989 39118 ft 512 kts 141°
2026-05-06 16:15 32.57683 25.95056 39117 ft 512 kts 141°
2026-05-06 16:16 32.36138 26.17194 39114 ft 512 kts 141°
2026-05-06 16:16 32.14527 26.39256 39121 ft 513 kts 141°
2026-05-06 16:17 31.92835 26.61257 39124 ft 514 kts 142°
2026-05-06 16:17 31.71078 26.83179 39120 ft 515 kts 142°
2026-05-06 16:18 31.49271 27.05013 39128 ft 515 kts 142°
2026-05-06 16:18 31.28615 27.27983 39128 ft 521 kts 125°
2026-05-06 16:19 31.12355 27.56052 39124 ft 522 kts 127°
2026-05-06 16:19 30.95749 27.83810 39126 ft 522 kts 127°
2026-05-06 16:20 30.79055 28.11553 39123 ft 523 kts 127°
2026-05-06 16:20 30.62275 28.39245 39104 ft 523 kts 128°
2026-05-06 16:21 30.45404 28.66893 39087 ft 525 kts 128°
2026-05-06 16:21 30.28458 28.94475 39094 ft 526 kts 128°
2026-05-06 16:22 30.11528 29.21898 39081 ft 527 kts 128°
2026-05-06 16:22 29.97436 29.45252 39099 ft 529 kts 128°
2026-05-06 16:23 29.80656 29.72830 39082 ft 529 kts 128°
2026-05-06 16:23 29.63690 30.00527 39064 ft 529 kts 128°
2026-05-06 16:24 29.46689 30.28099 39056 ft 528 kts 129°
2026-05-06 16:24 29.27814 30.53543 39049 ft 523 kts 138°
2026-05-06 16:25 29.07548 30.77627 39782 ft 533 kts 138°
2026-05-06 16:25 28.97084 30.90004 40891 ft 542 kts 138°
2026-05-06 16:25 28.86645 31.02316 41056 ft 537 kts 138°
2026-05-06 16:26 28.66052 31.26691 41058 ft 540 kts 136°
2026-05-06 16:26 28.45951 31.52092 41053 ft 539 kts 136°
2026-05-06 16:27 28.25781 31.77281 41047 ft 539 kts 136°
2026-05-06 16:27 28.05581 32.02417 41030 ft 540 kts 134°
2026-05-06 16:28 27.97626 32.17026 41028 ft 547 kts 122°
2026-05-06 16:28 27.90331 32.32126 40963 ft 547 kts 122°
2026-05-06 16:28 27.75720 32.62246 40955 ft 546 kts 122°
2026-05-06 16:29 27.62140 32.92920 40964 ft 547 kts 118°
2026-05-06 16:29 27.49619 33.23865 40955 ft 545 kts 120°
2026-05-06 16:30 27.38646 33.49680 40947 ft 545 kts 119°
2026-05-06 16:30 27.23386 33.85447 40939 ft 545 kts 120°
2026-05-06 16:31 27.10188 34.16126 40929 ft 544 kts 120°
2026-05-06 16:31 26.96926 34.46723 40921 ft 545 kts 121°
2026-05-06 16:32 26.83610 34.77219 40918 ft 545 kts 121°
2026-05-06 16:32 26.70216 35.07674 40922 ft 545 kts 121°
2026-05-06 16:33 26.56844 35.37862 40882 ft 545 kts 121°
2026-05-06 16:34 26.36537 35.83300 40900 ft 545 kts 122°
2026-05-06 16:34 26.22895 36.13561 40897 ft 545 kts 122°
2026-05-06 16:35 26.09227 36.43666 40884 ft 544 kts 123°
2026-05-06 16:35 25.95517 36.73658 40886 ft 543 kts 123°
2026-05-06 16:36 25.81835 37.03382 40868 ft 542 kts 123°
2026-05-06 16:36 25.68043 37.33149 40883 ft 542 kts 124°
2026-05-06 16:37 25.54293 37.62627 40911 ft 542 kts 124°
2026-05-06 16:37 25.40403 37.92208 40889 ft 541 kts 124°
2026-05-06 16:38 25.26489 38.21647 40857 ft 539 kts 125°
2026-05-06 16:38 25.12584 38.50877 40888 ft 540 kts 125°
2026-05-06 16:39 24.98867 38.79518 40888 ft 543 kts 125°
2026-05-06 16:39 24.84873 39.08576 40898 ft 541 kts 126°
2026-05-06 16:40 24.70745 39.37727 40895 ft 539 kts 126°
2026-05-06 16:40 24.56714 39.66897 40908 ft 545 kts 120°
2026-05-06 16:40 24.53508 39.83484 40919 ft 564 kts 102°
2026-05-06 16:41 24.51857 40.00597 40920 ft 564 kts 102°
2026-05-06 16:41 24.48507 40.34683 40923 ft 566 kts 102°
2026-05-06 16:42 24.45057 40.69003 40933 ft 565 kts 102°
2026-05-06 16:42 24.41527 41.03272 40935 ft 563 kts 102°
2026-05-06 16:43 24.37935 41.37416 40937 ft 563 kts 102°
2026-05-06 16:43 24.34275 41.71478 40938 ft 561 kts 102°
2026-05-06 16:43 24.31622 41.88027 40939 ft 550 kts 114°
2026-05-06 16:44 24.27364 42.04175 40945 ft 552 kts 112°
2026-05-06 16:44 24.18813 42.36483 40950 ft 551 kts 113°
2026-05-06 16:45 24.10210 42.68679 40962 ft 549 kts 113°
2026-05-06 16:45 24.01619 43.00524 40974 ft 549 kts 113°
2026-05-06 16:46 23.92911 43.32519 40967 ft 546 kts 113°
2026-05-06 16:46 23.84186 43.64285 40937 ft 545 kts 112°
2026-05-06 16:47 23.76829 43.96365 40927 ft 555 kts 98°
2026-05-06 16:47 23.74317 44.29931 40931 ft 553 kts 99°
2026-05-06 16:48 23.71754 44.63173 40925 ft 552 kts 99°
2026-05-06 16:48 23.69106 44.96554 40954 ft 553 kts 99°
2026-05-06 16:49 23.66384 45.29928 40943 ft 551 kts 99°
2026-05-06 16:49 23.63598 45.63231 40919 ft 549 kts 99°
2026-05-06 16:50 23.60741 45.96460 40914 ft 550 kts 99°
2026-05-06 16:50 23.57812 46.29702 40923 ft 549 kts 99°
2026-05-06 16:51 23.54830 46.62717 40901 ft 544 kts 99°
2026-05-06 16:51 23.51793 46.95587 40878 ft 545 kts 99°
2026-05-06 16:52 23.48707 47.28220 40857 ft 544 kts 99°
2026-05-06 16:52 23.45541 47.60962 40839 ft 543 kts 99°
2026-05-06 16:53 23.42314 47.93627 40807 ft 542 kts 99°
2026-05-06 16:53 23.38719 48.26175 40793 ft 540 kts 100°
2026-05-06 16:54 23.34821 48.58597 40790 ft 539 kts 100°
2026-05-06 16:54 23.30888 48.90720 40790 ft 539 kts 100°
2026-05-06 16:55 23.26855 49.23102 40779 ft 541 kts 100°
2026-05-06 16:55 23.22770 49.55362 40784 ft 539 kts 101°
2026-05-06 16:56 23.18614 49.87636 40786 ft 539 kts 101°
2026-05-06 16:56 23.14405 50.19772 40785 ft 536 kts 101°
2026-05-06 16:57 23.10137 50.51823 40793 ft 534 kts 101°
2026-05-06 16:57 23.05814 50.83781 40791 ft 535 kts 101°
2026-05-06 16:58 23.01425 51.15758 40794 ft 533 kts 101°
2026-05-06 16:58 22.97018 51.47380 40785 ft 534 kts 101°
2026-05-06 16:59 22.92509 51.79250 40782 ft 534 kts 101°
2026-05-06 16:59 22.87941 52.11078 40780 ft 534 kts 101°
2026-05-06 17:00 22.85687 52.26655 40781 ft 531 kts 101°
2026-05-06 17:00 22.84541 52.34569 40789 ft 531 kts 101°
2026-05-06 17:01 22.83388 52.42483 40777 ft 531 kts 101°
2026-05-06 17:01 22.82392 52.50361 40792 ft 533 kts 95°
2026-05-06 17:02 22.82186 52.58390 40780 ft 532 kts 92°
2026-05-06 17:02 22.81990 52.66431 40779 ft 533 kts 93°
2026-05-06 17:03 22.81780 52.74470 40772 ft 533 kts 93°
2026-05-06 17:03 22.81567 52.82469 40778 ft 533 kts 93°
2026-05-06 17:04 22.81348 52.90502 40767 ft 533 kts 93°
2026-05-06 17:04 22.81126 52.98515 40776 ft 533 kts 93°
2026-05-06 17:05 22.80901 53.06536 40778 ft 530 kts 93°
2026-05-06 17:05 22.80671 53.14541 40766 ft 530 kts 93°
2026-05-06 17:06 22.80439 53.22486 40779 ft 530 kts 93°
2026-05-06 17:06 22.80202 53.30476 40768 ft 531 kts 93°
2026-05-06 17:07 22.79961 53.38472 40774 ft 530 kts 93°
2026-05-06 17:07 22.79716 53.46470 40774 ft 531 kts 93°
2026-05-06 17:08 22.79467 53.54462 40770 ft 530 kts 93°
2026-05-06 17:08 22.79214 53.62452 40780 ft 530 kts 93°
2026-05-06 17:09 22.78957 53.70441 40776 ft 531 kts 93°
2026-05-06 17:09 22.78696 53.78433 40776 ft 530 kts 93°
2026-05-06 17:10 22.78432 53.86374 40767 ft 530 kts 93°
2026-05-06 17:10 22.78169 53.94337 40772 ft 528 kts 92°
2026-05-06 17:11 22.78652 54.02300 40776 ft 530 kts 82°
2026-05-06 17:11 22.80159 54.10087 40771 ft 531 kts 78°
2026-05-06 17:12 22.81747 54.17901 40771 ft 530 kts 78°
2026-05-06 17:12 22.83325 54.25709 40771 ft 530 kts 78°
2026-05-06 17:13 22.84640 54.32215 40781 ft 530 kts 78°
2026-05-06 17:13 22.86217 54.40025 40782 ft 530 kts 78°
2026-05-06 17:14 22.87792 54.47852 40773 ft 530 kts 78°
2026-05-06 17:14 22.89364 54.55683 40778 ft 531 kts 78°
2026-05-06 17:15 22.90933 54.63515 40779 ft 531 kts 78°
2026-05-06 17:15 22.92499 54.71357 40776 ft 531 kts 78°
2026-05-06 17:16 22.94046 54.79127 40784 ft 532 kts 78°
2026-05-06 17:16 22.95602 54.86955 40783 ft 532 kts 78°
2026-05-06 17:17 22.97157 54.94806 40778 ft 532 kts 78°
2026-05-06 17:17 22.98712 55.02677 40785 ft 532 kts 78°
2026-05-06 17:18 23.00289 55.10485 40785 ft 532 kts 75°
2026-05-06 17:18 23.03353 55.17782 40803 ft 533 kts 55°
2026-05-06 17:19 23.08359 55.23647 40796 ft 530 kts 36°
2026-05-06 17:19 23.14739 55.27547 40814 ft 525 kts 17°
2026-05-06 17:20 23.21748 55.29702 40807 ft 524 kts 12°
2026-05-06 17:20 23.28778 55.31776 40804 ft 523 kts 13°
2026-05-06 17:21 23.35767 55.33842 40807 ft 524 kts 12°
2026-05-06 17:21 23.42813 55.35925 40817 ft 523 kts 12°
2026-05-06 17:22 23.49851 55.38006 40794 ft 524 kts 12°
2026-05-06 17:22 23.53365 55.39046 40600 ft 525 kts 12°
2026-05-06 17:22 23.56898 55.40091 40345 ft 523 kts 12°
2026-05-06 17:22 23.60411 55.41130 40117 ft 524 kts 12°
2026-05-06 17:23 23.63925 55.42171 39886 ft 524 kts 12°
2026-05-06 17:23 23.67458 55.43217 39644 ft 525 kts 12°
2026-05-06 17:23 23.70944 55.44250 39413 ft 526 kts 12°
2026-05-06 17:23 23.74482 55.45300 39192 ft 527 kts 12°
2026-05-06 17:24 23.78026 55.46352 38849 ft 528 kts 12°
2026-05-06 17:24 23.81570 55.47404 38265 ft 526 kts 12°
2026-05-06 17:24 23.85102 55.48454 37468 ft 524 kts 12°
2026-05-06 17:24 23.88617 55.49499 36570 ft 523 kts 12°
2026-05-06 17:25 23.92134 55.50543 35638 ft 523 kts 12°
2026-05-06 17:25 23.95656 55.51589 34691 ft 524 kts 12°
2026-05-06 17:25 23.99065 55.52928 33777 ft 529 kts 21°
2026-05-06 17:25 24.02277 55.54871 32975 ft 528 kts 31°
2026-05-06 17:26 24.05182 55.57314 32208 ft 526 kts 39°
2026-05-06 17:26 24.07899 55.60017 31121 ft 528 kts 40°
2026-05-06 17:26 24.10618 55.62709 30372 ft 526 kts 39°
2026-05-06 17:26 24.13334 55.65394 29741 ft 525 kts 40°
2026-05-06 17:27 24.16041 55.68072 28992 ft 521 kts 40°
2026-05-06 17:27 24.18710 55.70719 28269 ft 514 kts 40°
2026-05-06 17:27 24.21336 55.73325 27570 ft 506 kts 40°
2026-05-06 17:27 24.23919 55.75891 26855 ft 497 kts 40°
2026-05-06 17:28 24.26462 55.78419 26158 ft 490 kts 40°
2026-05-06 17:28 24.28966 55.80909 25468 ft 483 kts 40°
2026-05-06 17:28 24.31441 55.83371 24782 ft 476 kts 41°
2026-05-06 17:28 24.33879 55.85797 24120 ft 470 kts 41°
2026-05-06 17:29 24.36278 55.88188 23342 ft 466 kts 41°
2026-05-06 17:29 24.38629 55.90530 22608 ft 459 kts 41°
2026-05-06 17:29 24.40976 55.92870 22042 ft 451 kts 41°
2026-05-06 17:29 24.43457 55.94941 21411 ft 446 kts 30°
2026-05-06 17:30 24.46248 55.96367 20845 ft 441 kts 17°
2026-05-06 17:30 24.49223 55.97081 20269 ft 435 kts
2026-05-06 17:30 24.52241 55.97044 19708 ft 431 kts 353°
2026-05-06 17:30 24.55204 55.96612 19156 ft 427 kts 352°
2026-05-06 17:31 24.58126 55.96167 18611 ft 424 kts 352°
2026-05-06 17:31 24.61040 55.95710 18062 ft 421 kts 352°
2026-05-06 17:31 24.63935 55.95246 17444 ft 417 kts 352°
2026-05-06 17:31 24.66790 55.94778 16850 ft 412 kts 352°
2026-05-06 17:32 24.69610 55.94309 16247 ft 408 kts 352°
2026-05-06 17:32 24.72379 55.93838 15681 ft 404 kts 352°
2026-05-06 17:32 24.75099 55.93134 15076 ft 401 kts 341°
2026-05-06 17:32 24.77558 55.91704 14404 ft 399 kts 326°
2026-05-06 17:33 24.79743 55.89838 13526 ft 398 kts 323°
2026-05-06 17:33 24.81893 55.87944 12686 ft 391 kts 323°
2026-05-06 17:33 24.84019 55.86085 11615 ft 387 kts 322°
2026-05-06 17:33 24.86126 55.84263 10567 ft 383 kts 321°
2026-05-06 17:34 24.88219 55.82465 9566 ft 379 kts 321°
2026-05-06 17:34 24.90290 55.80687 8534 ft 374 kts 321°
2026-05-06 17:34 24.92310 55.78954 7544 ft 370 kts 322°
2026-05-06 17:34 24.94328 55.77224 6722 ft 362 kts 322°
2026-05-06 17:35 24.96247 55.75578 6492 ft 337 kts 322°
2026-05-06 17:35 24.98044 55.74035 6339 ft 319 kts 322°
2026-05-06 17:35 24.99751 55.72567 6215 ft 303 kts 322°
2026-05-06 17:36 25.02923 55.69839 5978 ft 275 kts 322°
2026-05-06 17:36 25.04387 55.68580 5693 ft 262 kts 322°
2026-05-06 17:36 25.05817 55.67350 5197 ft 258 kts 322°
2026-05-06 17:36 25.07212 55.66151 4834 ft 250 kts 322°
2026-05-06 17:37 25.08552 55.64999 4647 ft 239 kts 322°
2026-05-06 17:37 25.09791 55.63833 4404 ft 235 kts 314°
2026-05-06 17:37 25.10819 55.62446 4171 ft 232 kts 305°
2026-05-06 17:37 25.11703 55.60965 3921 ft 230 kts 302°
2026-05-06 17:38 25.12504 55.59521 3722 ft 208 kts 302°
2026-05-06 17:38 25.13230 55.58216 3490 ft 192 kts 302°
2026-05-06 17:38 25.13898 55.57011 3304 ft 179 kts 302°
2026-05-06 17:38 25.14545 55.55846 3168 ft 178 kts 302°
2026-05-06 17:39 25.15190 55.54680 2975 ft 177 kts 302°
2026-05-06 17:39 25.15834 55.53519 2753 ft 177 kts 302°
2026-05-06 17:39 25.16475 55.52360 2539 ft 176 kts 302°
2026-05-06 17:39 25.17115 55.51205 2328 ft 176 kts 302°
2026-05-06 17:40 25.17750 55.50057 2100 ft 174 kts 302°
2026-05-06 17:40 25.18373 55.48932 1887 ft 174 kts 302°
2026-05-06 17:40 25.18999 55.47801 1685 ft 167 kts 302°
2026-05-06 17:40 25.19572 55.46764 1474 ft 152 kts 302°
2026-05-06 17:41 25.20112 55.45793 1281 ft 146 kts 302°
2026-05-06 17:41 25.20638 55.44836 1111 ft 145 kts 302°
2026-05-06 17:41 25.21152 55.43881 921 ft 143 kts 302°
2026-05-06 17:41 25.21676 55.42955 740 ft 142 kts 303°
2026-05-06 17:42 25.22186 55.42020 577 ft 142 kts 302°
2026-05-06 17:42 25.22693 55.41095 405 ft 141 kts 302°
2026-05-06 17:42 25.23209 55.40170 221 ft 141 kts 303°
2026-05-06 17:42 25.23721 55.39245 41 ft 140 kts 303°
2026-05-06 17:43 25.24164 55.38458 31 ft 98 kts 301°
2026-05-06 17:43 25.24460 55.37920 30 ft 69 kts 301°
2026-05-06 17:43 25.24647 55.37579 28 ft 35 kts 301°
2026-05-06 17:43 25.24751 55.37358 28 ft 30 kts 287°
2026-05-06 17:44 25.24782 55.37198 29 ft 17 kts 274°
2026-05-06 17:44 25.24784 55.37105 28 ft 7 kts 271°
2026-05-06 17:44 25.24785 55.37061 28 ft 6 kts 265°
2026-05-06 17:44 25.24769 55.36989 27 ft 13 kts 249°
2026-05-06 17:45 25.24694 55.36910 26 ft 18 kts 211°
2026-05-06 17:45 25.24594 55.36843 26 ft 18 kts 211°
2026-05-06 17:45 25.24506 55.36785 30 ft 12 kts 211°
2026-05-06 17:45 25.24432 55.36722 30 ft 16 kts 226°
2026-05-06 17:46 25.24373 55.36598 30 ft 20 kts 260°
2026-05-06 17:46 25.24403 55.36438 30 ft 23 kts 302°
2026-05-06 17:46 25.24478 55.36303 31 ft 21 kts 301°
2026-05-06 17:46 25.24553 55.36167 28 ft 19 kts 301°
2026-05-06 17:47 25.24610 55.36064 30 ft 14 kts 302°
2026-05-06 17:47 25.24660 55.35977 29 ft 13 kts 302°
2026-05-06 17:47 25.24705 55.35898 31 ft 12 kts 302°
2026-05-06 17:47 25.24757 55.35820 30 ft 13 kts 317°
2026-05-06 17:48 25.24834 55.35765 28 ft 14 kts 330°
2026-05-06 17:48 25.24902 55.35705 32 ft 11 kts 304°
2026-05-06 17:48 25.24933 55.35649 30 ft 7 kts 304°
2026-05-06 17:48 25.24962 55.35607 30 ft 6 kts 324°
2026-05-06 17:49 25.24988 55.35600 28 ft 3 kts 10°
2026-05-06 17:49 25.25011 55.35609 26 ft 4 kts 27°
2026-05-06 17:49 25.25030 55.35622 26 ft 2 kts 33°
2026-05-06 17:49 25.25041 55.35630 28 ft 2 kts 32°
2026-05-06 17:50 25.25047 55.35635 28 ft 0 kts 32°